View from above orbital plane
|
View from above satellite
|
Ground track
|
The orbit data is extracted from the following two-line orbital elements,
1 39153U 13018D 21023.84719737 .00000222 00000-0 35585-4 0 9994
2 39153 97.9886 130.0952 0018241 101.7719 258.5540 14.80841283418407
Epoch (UTC): | 23 January 2021 20:19:57 |
Eccentricity: | 0.0018241 |
inclination: | 97.9886° |
perigee height: | 614 km |
apogee height: | 639 km |
right ascension of ascending node: | 130.0952° |
argument of perigee: | 101.7719° |
revolutions per day: | 14.80841283 |
mean anomaly at epoch: | 258.5540° |
orbit number at epoch: | 41840 |
The dashed part of the orbit path shows where the satellite is in the earth's shadow,
|
|